Volver al catálogo

STARLINK-30814

ActivoComunicacionesVLEO
NORAD 58165·PAYLOAD·🇺🇸 United States

Lanzado Oct 29, 2023 desde Vandenberg Space Force Base

Loading…

Próximos Pases (próximas 24 horas)

TLE

ActualizadoSource: CelesTrak SupGP

Época: Sep 14, 2026, 22:33 UTC

1 58165C 23166R   26257.94006944  .00034815  00000+0  10289-2 0  2570
2 58165  53.1605  59.6198 0001222  80.0695  69.2443 15.34365251    14

Sigue STARLINK-30814 en tiempo real con AllMySat

Download on the App Store